Snowfall_Accumulation
0.9 0.8 1.0 1.0 1.0 1.2 1.6 2.7 4.4 3.6 1.0 0.3 0.3 0.3 0.4 0.3 0.3 0.4 0.3 0.2 0.3 0.4 0.5 0.4 0.3 0.1 0.1 0.1 0.0 0.0 0.0 0.0 0.1 0.1 0.0 0.1 0.1 0.0
1.1 1.2 1.1 1.1 1.2 1.2 1.4 1.7 2.9 4.6 3.3 0.6 0.4 0.3 0.4 0.4 0.3 0.6 0.5 0.2 0.3 0.3 0.3 0.4 0.3 0.2 0.2 0.1 0.1 0.1 0.0 0.0 0.1 0.1 0.1 0.0 0.1 0.1
1.2 1.4 1.6 1.5 1.5 1.4 1.5 1.8 2.2 3.5 4.3 1.1 0.3 0.3 0.4 0.5 0.4 0.4 0.4 0.3 0.4 0.2 0.2 0.3 0.3 0.3 0.3 0.2 0.1 0.1 0.1 0.1 0.1 0.1 0.1 0.0 0.0 0.0
1.5 1.7 1.8 1.8 2.0 1.8 2.0 2.0 2.1 2.7 4.0 2.8 0.8 0.6 0.6 0.5 0.4 0.4 0.3 0.3 0.4 0.2 0.1 0.3 0.4 0.4 0.4 0.5 0.2 0.2 0.2 0.1 0.1 0.1 0.1 0.0 0.0 0.1
1.8 2.2 2.3 2.6 2.8 2.4 2.5 2.5 2.1 1.9 2.6 3.2 1.8 0.8 0.7 0.6 0.5 0.6 0.5 0.5 0.2 0.2 0.2 0.2 0.3 0.4 0.4 0.5 0.4 0.3 0.3 0.2 0.1 0.2 0.2 0.1 0.1 0.1
1.9 2.3 2.8 3.4 3.9 4.1 3.9 3.2 2.6 2.9 3.0 3.5 2.8 1.7 1.4 1.0 1.2 1.4 1.1 0.7 0.5 0.4 0.3 0.2 0.3 0.3 0.4 0.5 0.4 0.5 0.5 0.4 0.4 0.3 0.3 0.3 0.3 0.2
3.0 2.8 2.6 3.1 3.9 5.0 5.8 5.8 5.3 6.2 5.4 5.5 4.6 3.4 2.7 2.7 2.6 1.9 2.2 1.3 0.7 0.4 0.5 0.3 0.2 0.3 0.3 0.2 0.2 0.2 0.7 0.6 0.5 0.5 0.4 0.3 0.3 0.3
4.4 3.6 2.9 2.7 2.9 2.7 3.5 4.3 5.0 7.4 8.2 8.2 7.6 6.7 4.5 2.9 2.9 2.9 3.6 4.0 2.9 0.7 0.8 0.6 0.4 0.4 0.4 0.3 0.2 0.3 0.6 0.6 0.7 0.7 0.5 0.5 0.5 0.5
3.8 3.3 3.1 2.6 2.6 2.6 3.1 2.3 2.8 3.6 5.6 7.5 9.7 7.8 5.4 4.6 4.5 5.0 4.7 5.0 3.5 1.8 2.0 2.3 0.9 0.9 0.7 0.2 0.2 0.4 0.5 0.8 0.9 0.8 0.8 0.8 0.9 0.6
3.0 3.3 3.4 3.2 2.9 3.4 4.0 4.4 3.9 3.7 4.3 6.1 8.2 7.0 5.5 5.2 5.5 7.2 6.8 7.1 4.4 2.2 2.2 4.3 1.5 1.1 0.7 0.5 0.1 0.3 0.5 0.7 1.0 1.0 0.9 1.0 1.1 1.0
2.7 3.7 4.2 3.8 3.5 3.9 5.7 6.2 4.6 3.4 3.0 4.3 5.3 5.8 4.9 5.3 7.2 9.7 13.0 13.6 10.7 3.9 2.6 4.5 2.3 1.6 0.9 0.7 0.3 0.2 0.4 0.5 0.6 0.9 1.0 1.1 1.2 1.2
2.7 3.7 5.5 5.3 4.8 4.3 6.0 7.0 6.6 4.1 3.5 3.6 3.9 4.0 4.3 4.9 5.8 8.7 11.0 14.0 12.6 9.1 4.5 3.8 3.6 4.4 4.2 1.2 0.6 0.3 0.4 0.3 0.5 0.6 0.8 1.0 1.5 1.4
4.2 4.6 5.5 5.1 4.6 4.5 5.1 6.4 6.9 5.8 5.4 5.3 4.6 4.2 4.4 5.1 6.0 7.4 8.8 11.4 13.3 11.0 7.2 6.6 6.9 6.3 7.4 4.3 1.4 0.7 0.6 0.6 0.4 0.4 0.4 0.7 1.0 1.5
4.9 4.1 4.8 4.8 4.7 4.5 4.3 4.0 4.4 5.1 6.0 5.6 5.0 4.0 3.9 4.4 5.5 6.7 8.9 10.0 10.3 10.1 7.8 8.3 11.0 9.2 9.8 8.0 4.4 2.1 1.4 0.8 0.9 0.8 0.6 0.7 0.9 1.2
4.8 5.7 5.0 4.3 3.9 3.3 2.6 3.0 3.3 4.2 5.0 5.3 4.5 3.7 3.4 3.3 3.9 5.2 6.8 8.1 8.8 8.8 7.4 6.7 8.7 8.4 10.3 10.4 6.0 3.9 2.9 2.0 1.5 1.6 1.3 1.4 1.3 1.5
3.8 4.2 4.1 3.1 2.5 2.0 1.8 2.0 2.3 3.5 4.8 5.3 4.3 3.2 2.9 3.4 4.1 4.9 6.6 8.1 9.9 9.5 8.2 6.5 6.4 8.3 10.2 8.3 7.5 6.0 4.4 3.9 2.9 2.4 1.9 1.8 1.7 1.4
6.3 5.9 4.9 3.7 3.1 2.5 2.1 1.8 2.0 2.8 3.7 4.0 4.3 4.2 4.0 3.8 4.4 5.0 6.6 8.3 10.1 10.1 9.9 8.9 8.6 8.9 10.0 10.1 9.7 7.1 5.2 4.3 3.6 3.4 2.9 2.7 2.0 1.7
6.4 6.9 5.0 3.9 3.7 3.4 2.9 2.6 2.3 2.7 3.0 3.4 3.9 4.3 4.7 4.6 4.7 4.8 6.6 8.4 9.5 9.4 9.7 9.8 11.2 12.9 13.7 13.5 11.1 8.5 6.2 4.7 4.0 3.7 3.4 3.8 3.0 1.9
5.2 4.9 4.0 3.8 3.7 3.8 3.7 3.5 2.9 2.8 3.4 4.0 4.2 4.3 4.9 5.4 5.7 5.5 6.1 7.4 8.5 8.8 9.4 10.2 12.1 15.7 18.5 16.3 11.8 9.1 7.3 5.6 4.9 4.4 3.4 3.3 3.4 2.4
3.4 3.8 3.9 3.5 3.9 4.0 3.9 3.8 3.4 3.5 3.7 4.2 4.3 4.3 4.8 5.8 6.2 6.1 6.5 7.7 8.6 9.5 10.0 10.5 12.3 14.2 16.6 14.5 12.7 11.4 7.3 6.9 6.3 5.7 4.2 3.4 2.7 2.0
3.4 3.5 3.6 3.8 4.1 4.0 4.1 4.0 4.1 4.0 3.8 4.0 4.1 4.0 4.5 5.9 6.2 5.7 6.3 7.2 9.2 10.6 10.8 10.9 10.0 11.1 13.2 14.8 16.4 15.1 12.1 8.0 5.6 6.1 5.9 6.1 5.8 5.3
3.9 4.0 3.7 3.7 3.8 4.1 4.2 4.1 4.1 3.7 3.5 3.8 4.0 4.1 4.6 5.5 6.0 5.9 6.6 7.7 8.7 9.4 9.8 10.3 9.7 12.6 16.9 18.5 17.0 14.8 14.0 11.6 10.1 6.4 5.1 5.5 7.8 8.2
4.8 4.7 4.0 3.6 3.8 4.0 4.1 4.2 4.1 3.5 3.4 3.8 4.3 4.5 4.7 5.7 6.0 6.5 6.9 7.5 8.3 8.8 9.5 10.5 11.9 14.3 16.4 16.2 16.3 15.0 13.3 11.1 11.0 10.5 10.4 4.9 3.9 3.9